Flag for Germany Weather past 2 weeks in Winsen (Luhe), Lower Saxony, Germany

Now
64 °F

Scattered clouds.


Feels Like: 64 °F
Forecast: 50 / 63 °F
Wind: 21 mph from Southwest

Location: Hamburg-Finkenwerder

Current Time: Aug 22, 2014 at 12:56:57 PM

Latest Report: Aug 22, 2014 at 12:20 PM


Visibility: N/A

Pressure: 29.80 "Hg

Humidity: 56%

Dew point: 48 °F

Location of Winsen (Luhe)Location

Historic Weather in Winsen (Luhe) — Graph

°F

Winsen (Luhe) temperature yesterday

Maximum temperature yesterday: 64 °F (at 3:50 PM)
Minimum temperature yesterday: 46 °F (at 5:50 AM)
Average temperature yesterday: 58 °F

Past Weeks' High & Low Weather Summary

 TemperatureHumidityPressure
High79 °F (Aug 8, 4:20 PM)100% (Aug 8, 5:50 AM)30.01 "Hg (Aug 8, 5:50 AM)
Low46 °F (Aug 21, 5:50 AM)38% (Aug 13, 3:20 PM)29.47 "Hg (Aug 18, 10:20 AM)
Average62 °F73%29.78 "Hg
* Reported Aug 7 11:20 AM — Aug 22 11:20 AM, Winsen (Luhe), Weather by CustomWeather, © 2014

Note: Actual official high and low records may vary slightly from our data, if they occured in-between our weather recording intervals... More about our weather records

Advertising

Winsen (Luhe) weather history for previous 24 hours

 ConditionsComfort  
Time TempWeatherWind HumidityBarometerVisibility
11:20 AM
Aug 22
63 °FScattered clouds.16 mph64%29.83 "HgN/A
10:50 AM61 °FScattered clouds.17 mph68%29.83 "HgN/A
10:20 AM61 °FPassing clouds.15 mph68%29.83 "HgN/A
9:50 AM59 °FSunny.14 mph72%29.83 "Hg10 mi
9:20 AM57 °FSunny.13 mph77%29.83 "Hg10 mi
8:50 AM57 °FPassing clouds.12 mph72%29.83 "HgN/A
8:20 AM55 °FSunny.12 mph82%29.83 "Hg10 mi
7:50 AM54 °FSunny.10 mph82%29.83 "Hg10 mi
7:20 AM54 °FSunny.12 mph82%29.83 "Hg10 mi
6:50 AM54 °FClear.12 mph82%29.86 "Hg10 mi
6:20 AM52 °FPassing clouds.12 mph88%29.83 "HgN/A
8:20 PM
Aug 21
59 °FSprinkles. Clear.5 mph68%29.92 "HgN/A
7:50 PM61 °FPartly sunny.7 mph59%29.92 "HgN/A
7:20 PM63 °FSunny.6 mph56%29.92 "Hg10 mi
6:50 PM63 °FSunny.8 mph56%29.92 "Hg10 mi
6:20 PM64 °FSunny.13 mph49%29.92 "Hg10 mi
5:50 PM64 °FPassing clouds.12 mph49%29.92 "HgN/A
5:20 PM63 °FSunny.14 mph52%29.92 "Hg10 mi
4:50 PM64 °FSunny.14 mph49%29.95 "Hg10 mi
4:20 PM64 °FSunny.15 mph49%29.95 "Hg10 mi
3:50 PM64 °FScattered clouds.15 mph49%29.95 "HgN/A
3:20 PM63 °FScattered clouds.15 mph52%29.95 "HgN/A
2:50 PM63 °FScattered clouds.14 mph56%29.95 "HgN/A
2:20 PM63 °FBroken clouds.8 mph56%29.95 "HgN/A
1:50 PM61 °FScattered clouds.12 mph59%29.95 "HgN/A
1:20 PM61 °FScattered clouds.14 mph59%29.95 "HgN/A
12:50 PM61 °FScattered clouds.10 mph63%29.95 "HgN/A
12:20 PM61 °FScattered clouds.13 mph63%29.95 "HgN/A
Weather by CustomWeather, © 2014

See weather overviewHow to use our weather pages